Location: ??????
(56.0120°N, 39.1740°E)
Time: 11:38:00
(UTC+00:00)

Helios 1B rocket - Pass Details

Date: 14 April 2026
Orbit: 462 x 468 km, 98.2° (Epoch: 10 May)

Event Time Altitude Azimuth Distance (km) Brightness Sun altitude
Exits shadow 18:23:29 14° 81° (E) 1,385 4.0 -14.5°
Maximum altitude 18:24:41 17° 56° (ENE) 1,280 4.1 -14.7°
Drops below altitude 10° 18:26:59 10° 15° (NNE) 1,646 5.1 -14.9°
Sets 18:29:35 0° 355° (N) 2,530 6.5 -15.2°
